Weather Roundup
Issued by NWS Chicago, IL

Home | Current Version | Previous Version | Graphics & Text | Print | Product List | Glossary On
Versions: 1 2 3 4 5 6 7 8 9 10 11 12 13 14 15 16 17 18 19 20 21 22 23 24 25 26 27 28 29 30 31 32 33 34 35 36 37 38 39 40 41 42 43 44 45 46 47 48 49 50
960
NZUS59 KLOT 222003
HRRLOT

CHICAGO AREA WEATHER ROUNDUP
NATIONAL WEATHER SERVICE CHICAGO/ROMEOVILLE IL
200 PM CST WED FEB 22 2017

NOTE: "FAIR" INDICATES FEW OR NO CLOUDS BELOW 12,000 FEET WITH NO
SIGNIFICANT WEATHER AND/OR OBSTRUCTIONS TO VISIBILITY.

* THESE STATIONS ARE NOT UNDER NWS QUALITY CONTROL. THEY ALSO MAY NOT
  REPORT WEATHER SUCH AS PRECIPITATION OR FOG.

ILZ005-006-012>014-019>023-222100-
NORTHEAST ILLINOIS

CITY           SKY/WX    TMP DP  RH WIND       PRES   REMARKS
OHARE          MOSUNNY   65  53  65 SW18G24   29.67F
MIDWAY         PTSUNNY   62  54  74 S16G23    29.69F
AURORA         MOSUNNY   66  54  65 S10G22    29.68F
LANSING*       CLOUDY    60  58  91 SW13      29.73F FOG
JOLIET*        PTSUNNY   65  58  77 S13G18    29.70F
WAUKEGAN       SUNNY     68  51  54 SW17      29.64F
DUPAGE AIRPORT SUNNY     66  53  63 S15       29.67F
WHEELING       SUNNY     65  52  62 SW14      29.67F
KANKAKEE*      CLOUDY    64  56  75 S10       29.74F
MORRIS*        MOSUNNY   65  55  70 SW10      29.69F
LEWIS AIRPORT* PTSUNNY   63  58  86 S16       29.70F
NORTHERLY ISL    N/A     61  53  75 SW13        N/A
$$

WIZ051-052-058>065-066-070>072-222100-
SOUTHEAST WISCONSIN

CITY           SKY/WX    TMP DP  RH WIND       PRES   REMARKS
MILWAUKEE      MOSUNNY   70  50  49 SW18G26   29.61F
KENOSHA*       SUNNY     68  51  54 SW15G23   29.63F
RACINE*        SUNNY     68  49  50 SW14G24   29.63F
WAUKESHA       SUNNY     64  48  55 S17G25    29.62F
WEST BEND      SUNNY     68  45  42 SW16G26   29.56F
$$

INZ001>003-010>013-019-020-222100-
NORTHWEST INDIANA

CITY           SKY/WX    TMP DP  RH WIND       PRES   REMARKS
GARY*          CLOUDY    63  54  72 S9        29.73F HAZE
MICHIGAN CITY* NOT AVBL
RENSSELAER*    NOT AVBL
VALPARAISO     PTSUNNY   64  56  75 SW15      29.74F HAZE
$$

LMZ740>746-222100-
SOUTHERN LAKE MICHIGAN

STATION/POSITION TIME  SKY/WX   TEMP WIND        PRES    VSBY
                                AIR  DIR/SP/G
                 (UTC)          (F)  (DEG/KT/KT) (MB)    (MI)
HARRISON CRIB    1940            58  190/ 19/ 21   N/A
BURNHAM HARBOR   2000            62  200/ 11/ 16   N/A
CALUMET HARBOR   1930            59  200/ 11/ 19 1005.7F
BURNS HARBOR     1940            59  210/ 13/ 23 1007.5F
MICHIGAN CITY    1940            62  190/ 15/ 19   N/A
$$

ABBREVIATIONS USED IN REMARKS
   TC - TEMPERATURE IN CELSIUS
  WCI - WIND CHILL INDEX
   HX - HEAT INDEX
  VSB - VISIBILITY
$$




USA.gov is the U.S. government's official web portal to all federal, state and local government web resources and services.